This is the latest recevied weather packets stored in our database for station/object F5MAP-5. If no packets are shown the sender has not sent any weather packets the latest 10 day(s).
| Time | Temp. | Humidity | Pressure | Rain* | Wind** | Luminosity | Snow |
|---|---|---|---|---|---|---|---|
| 1787731932 | 17.22° C | 95% | 1016.8 hPa | 0 mm | - | 72 W/m² | - |
| 1787731332 | 17.22° C | 95% | 1016.8 hPa | 0 mm | - | 74 W/m² | - |
| 1787730733 | 17.22° C | 95% | 1016.7 hPa | 0 mm | - | 109 W/m² | - |
| 1787730132 | 17.22° C | 95% | 1016.7 hPa | 0 mm | - | 83 W/m² | - |
| 1787729532 | 16.67° C | 95% | 1016.6 hPa | 0 mm | - | 77 W/m² | - |
| 1787728932 | 16.67° C | 95% | 1016.6 hPa | 0 mm | - | 91 W/m² | - |
| 1787728332 | 16.67° C | 95% | 1016.6 hPa | 0 mm | - | 91 W/m² | - |
| 1787727732 | 16.67° C | 95% | 1016.5 hPa | 0 mm | - | 83 W/m² | - |
| 1787727132 | 16.67° C | 95% | 1016.6 hPa | 0 mm | - | 69 W/m² | - |
| 1787726532 | 16.67° C | 95% | 1016.5 hPa | 0 mm | - | 76 W/m² | - |
| 1787725932 | 16.67° C | 95% | 1016.5 hPa | 0 mm | - | 49 W/m² | - |
| 1787725332 | 16.67° C | 95% | 1016.5 hPa | 0 mm | - | 47 W/m² | - |
| 1787724731 | 16.67° C | 95% | 1016.4 hPa | 0 mm | - | 39 W/m² | - |
| 1787724132 | 16.11° C | 94% | 1016.4 hPa | 0 mm | - | 58 W/m² | - |
| 1787723532 | 16.11° C | 94% | 1016.4 hPa | 0 mm | - | 23 W/m² | - |
| 1787722932 | 16.11° C | 94% | 1016.3 hPa | 0 mm | - | 14 W/m² | - |
| 1787722331 | 16.11° C | 94% | 1016.4 hPa | 0 mm | - | 11 W/m² | - |
| 1787721731 | 16.11° C | 94% | 1016.1 hPa | 0 mm | - | 19 W/m² | - |
| 1787721131 | 16.11° C | 94% | 1016.2 hPa | 0 mm | - | 14 W/m² | - |
| 1787720532 | 16.11° C | 94% | 1016.1 hPa | 0 mm | - | 7 W/m² | - |
| 1787719931 | 16.11° C | 94% | 1016 hPa | 0 mm | - | 0 W/m² | - |
| 1787719331 | 16.11° C | 94% | 1015.8 hPa | 0 mm | - | 0 W/m² | - |
| 1787718731 | 16.11° C | 94% | 1015.7 hPa | 0 mm | - | 0 W/m² | - |
| 1787718131 | 16.11° C | 94% | 1015.8 hPa | 0 mm | - | 0 W/m² | - |
| 1787717531 | 16.11° C | 94% | 1015.8 hPa | 0 mm | - | 0 W/m² | - |
* Rain latest hour (hover to see other rain measurements)
** Current wind speed in m/s (hover to see current wind gust speed)